[Iaude] MPEC E46: 2019 ES [a=1.42,e=0.33,i=2.7,H=25.3]

mpec at mpcdb1.cfa.harvard.edu mpec at mpcdb1.cfa.harvard.edu
Tue Mar 5 18:43:16 EST 2019


M.P.E.C. 2019-E46                                Issued 2019 Mar. 5, 23:39 UT
 
     The Minor Planet Electronic Circulars contain information on unusual
         minor planets and routine data on comets.  They are published
    on behalf of Division F of the International Astronomical Union by the
          Minor Planet Center, Smithsonian Astrophysical Observatory,
                          Cambridge, MA 02138, U.S.A.

             Prepared using the Tamkin Foundation Computer Network

                              MPC at CFA.HARVARD.EDU
            URL https://www.minorplanetcenter.net/    ISSN 1523-6714


                                    2019 ES
 
Observations:
     K19E00S* C2019 03 04.29542 11 29 39.30 +41 50 38.3          20.3 GVEE046G96
     K19E00S  C2019 03 04.30070 11 29 41.52 +41 51 01.5          20.5 GVEE046G96
     K19E00S  C2019 03 04.30597 11 29 43.72 +41 51 25.0          20.3 GVEE046G96
     K19E00S  C2019 03 04.43278 11 30 37.48 +42 00 18.5          20.1 GVEE046I52
     K19E00S  C2019 03 04.43398 11 30 38.01 +42 00 23.4          20.6 GVEE046I52
     K19E00S  C2019 03 04.43518 11 30 38.54 +42 00 28.7          20.2 GVEE046I52
     K19E00S KC2019 03 04.84554 11 34 29.19 +42 30 10.6          19.9 VtEE046K96
     K19E00S KC2019 03 04.85837 11 34 35.53 +42 31 13.4          20.0 VtEE046K96
     K19E00S KC2019 03 04.87118 11 34 41.77 +42 32 15.2          19.6 VtEE046K96
     K19E00S  C2019 03 05.17666011 37 35.64 +42 55 30.1          19.7 GVEE046H01
     K19E00S  C2019 03 05.18049211 37 37.66 +42 55 49.8          20.0 GVEE046H01
     K19E00S  C2019 03 05.19535911 37 45.49 +42 57 06.0          20.2 GVEE046H01
     K19E00S  C2019 03 05.20201811 37 48.97 +42 57 40.0          20.5 GVEE046H01
     K19E00S  C2019 03 05.32745 11 38 53.95 +43 08 01.7          20.2 GVEE046I52
     K19E00S  C2019 03 05.32792 11 38 54.17 +43 08 03.4          20.1 GVEE046I52
     K19E00S  C2019 03 05.32839 11 38 54.43 +43 08 05.8          19.9 GVEE046I52
     K19E00S  C2019 03 05.32887 11 38 54.66 +43 08 08.2          20.1 GVEE046I52
     K19E00S KC2019 03 05.34939211 39 00.38 +43 09 14.8          20.5 VuEE046H21
     K19E00S KC2019 03 05.35230011 39 01.89 +43 09 27.8          20.5 VuEE046H21
     K19E00S KC2019 03 05.35521011 39 03.42 +43 09 40.9          20.3 VuEE046H21
     K19E00S KC2019 03 05.90030 11 44 57.79 +43 53 01.8          19.8 GVEE046587
     K19E00S KC2019 03 05.90147 11 44 58.43 +43 53 07.7          19.6 GVEE046587
     K19E00S KC2019 03 05.90560 11 45 00.96 +43 53 29.6          19.8 GVEE046587
     K19E00S KC2019 03 05.93318 11 45 17.26 +43 56 00.8          19.9  VEE046104
     K19E00S KC2019 03 05.94511 11 45 24.41 +43 57 03.0          20.4  VEE046104
     K19E00S KC2019 03 05.94969 11 45 27.15 +43 57 26.6          19.9  VEE046104
 
Observer details:
104 San Marcello Pistoiese.  Observers P. Bacci, M. Maestripieri.  Measurers
    P. Bacci, L. Tesi, G. Fagioli.  0.60-m reflector + CCD.
587 Sormano.  Observers A. Fumagalli, A. Butti, L. Iachelini, A. Mahu,
    L. Molteni.  Measurer A. Mahu.  0.5-m f/6.8 reflector + CCD.
G96 Mt. Lemmon Survey.  Observer E. J. Christensen.  Measurers B. M. Africano,
    E. J. Christensen, G. A. Farneth, D. C. Fuls, A. R. Gibbs, A. D. Grauer,
    H. Groeller, R. A. Kowalski, S. M. Larson, G. J. Leonard, T. A. Pruyne,
    R. L. Seaman, F. C. Shelly.  1.5-m reflector + 10K CCD.
H01 Magdalena Ridge Observatory, Socorro.  Observers W. H. Ryan, E. V. Ryan.
    Measurer W. H. Ryan.  2.4-m f/8.9 Ritchey-Chretien + CCD.
H21 Astronomical Research Observatory, Westfield.  Observer R. Holmes.
    Measurers S. Foglia, L. Buzzi, T. Linder, R. Holmes.  0.76-m f/3.0
    astrograph + CCD.
I52 Steward Observatory, Mt. Lemmon Station.  Observers D. C. Fuls,
    T. A. Pruyne.  Measurers B. M. Africano, E. J. Christensen, G. A. Farneth,
    D. C. Fuls, A. R. Gibbs, A. D. Grauer, H. Groeller, R. A. Kowalski,
    S. M. Larson, G. J. Leonard, T. A. Pruyne, R. L. Seaman, F. C. Shelly.
    1.0-m reflector + CCD.
K96 Savelli Observatory.  Observers A. Brosio, A. De Pieri.  0.5-m f/8.0
    Ritchey-Chretien + CCD.
 
Orbital elements:
2019 ES                                                  Earth MOID = 0.0202 AU
Epoch 2019 Apr. 27.0 TT = JDT 2458600.5                 MPC
M   7.05215              (2000.0)            P               Q
n   0.58441834     Peri.  188.24162     -0.85808676     +0.51318764
a   1.4168379      Node    22.66270     -0.46842095     -0.76786955
e   0.3293732      Incl.    2.68405     -0.21040181     -0.38342510
P   1.69           H   25.3           G   0.15           U   7
Residuals in seconds of arc
190304 G96  0.3-  0.2+    190305 H01  0.0   0.0     190305 H21  0.2-  0.1+
190304 G96  0.1-  0.0     190305 H01  0.1-  0.0     190305 H21  0.1-  0.2+
190304 G96  0.1-  0.2+    190305 H01  0.0   0.0     190305 587  0.7+  0.2+
190304 I52  0.1+  0.4-    190305 H01  0.0   0.1+    190305 587  0.0   0.1-
190304 I52  0.1+  0.3-    190305 I52  0.1+  0.2+    190305 587  0.4+  0.0
190304 I52  0.2+  0.2+    190305 I52  0.1-  0.4-    190305 104  0.8-  0.2-
190304 K96  0.1+  0.6+    190305 I52  0.1+  0.2-    190305 104  0.2-  0.1+
190304 K96  0.2+  0.2+    190305 I52  0.0   0.1-    190305 104  0.1+  0.1+
190304 K96  0.2-  0.7-    190305 H21  0.0   0.0

Ephemeris:
2019 ES                  a,e,i = 1.42, 0.33, 3                   q = 0.9502
Date    TT    R. A. (2000) Decl.     Delta      r     Elong.  Phase     V
2019 02 03    10 21 06.4 +26 33 10   0.1898  1.1654   159.7    17.1    22.9
...
2019 02 18    10 37 50.2 +31 32 42   0.1137  1.0949   158.8    19.0    21.7
...
2019 02 26    10 56 21.7 +36 01 41   0.07890 1.0606   152.5    25.5    21.1
...
2019 03 04    11 27 14.0 +41 29 21   0.05514 1.0369   144.6    33.6    20.5
2019 03 05    11 35 44.4 +42 42 09   0.05142 1.0331   142.8    35.5    20.4
2019 03 06    11 45 55.9 +44 01 38   0.04777 1.0294   140.9    37.5    20.3
...
2019 03 12    14 04 58.8 +52 50 02   0.02896 1.0087   121.0    57.6    19.7
...
2019 03 20    19 34 28.3 +19 32 51   0.02749 0.9852    67.0   111.5    21.7
...
2019 04 04    21 21 26.4 -12 26 14   0.07920 0.9566    54.9   121.2    24.6

A. U. Tomatic                (C) Copyright 2019 MPC           M.P.E.C. 2019-E46



More information about the Iaude mailing list